Weather in Rodomanovo

Russia / Smolensk Oblast     55°38′05″N   34°47′57″E
temp.,
°C
wind,
m/s
gust,
m/s
humid.,
%
clouds,
%
prec.,
mm/h
press.,
hPa
HPBL,
m
13 april, tue
tue1300:00+9ese3894100 0.0 1024202
03:00+8ese389484 0.0 1023183
06:00+7se3893100 0.0 1023169
09:00+11sse4974100 0.0 1023333
12:00+17s585696 0.0 1022630
15:00+19sse694699 0.0 10211821
18:00+17sse5105398 0.0 1020568
21:00+13sse41067100 0.0 1020247
14 april, wed
wed1400:00+10se387742 0.0 1020149
03:00+10se31071100 0.0 1019228
06:00+8se3108266 0.0 1018201
09:00+11sse41077100 0.0 1018388
12:00+16s585873 0.0 10171160
15:00+17s5752100 0.5 10161623
18:00+15sse2566100 0.3 1016235
21:00+12se2277100 0.4 101711
15 april, thu
thu1500:00+10se3874100 0.0 1017157
03:00+9ese227699 0.0 101727
06:00+9ene3576100 0.0 101785
09:00+11e1272100 0.0 1017114
12:00+13n1161100 0.0 1017389
15:00+15e1359100 0.2 1016454
18:00+11nw2378100 0.2 101758
21:00+11n2480100 0.3 101769
16 april, fri
fri1600:00+9nne51092100 1.8 1018309
03:00+8ne51291100 2.0 1018398
06:00+7ne61390100 0.1 1019442
09:00+8ne71383100 0.1 1020528
12:00+12ene71069100 0.0 1020829
15:00+12ne71168100 0.0 1021892
18:00+11ne71273100 0.0 1022782
21:00+9ne61376100 0.0 1024717
17 april, sat
sat1700:00+7ne6147758 0.0 1026667
03:00+5ne613685 0.0 1027478
06:00+3ne6147114 0.0 1028455
09:00+7ene712571 0.0 1029793
12:00+10ene710420 0.0 10301360
15:00+11ene79391 0.0 10311561
18:00+10ene69470 0.0 10311404
21:00+6ene512500 0.0 1034465